RYR7KX LIEE-LICC

Flight info

Callsign RYR7KX
Flight time N/A
Altitude 19000
Route CAR M871 ADAMI/N0433F390 DCT KAPIL DCT PAL DCT BEKIV DCT ENEPA DCT LIBRO
Aircraft B738/M-SDE3FGILRWY/SB1

Departure

Time 2026-05-01 14:38
Airport Cagliari Elmas Airport (LIEE)

Arrival

Time N/A
Airport Catania-Fontanarossa Airport (LICC)
Time Latitude Longitude Altitude Speed Heading
2026-05-01 14:11 39.25403 9.05914 14 ft 0 kts 141°
2026-05-01 14:30 39.25419 9.05898 14 ft 4 kts 141°
2026-05-01 14:30 39.25436 9.05881 14 ft 4 kts 145°
2026-05-01 14:31 39.25467 9.05896 14 ft 2 kts 232°
2026-05-01 14:31 39.25468 9.05898 14 ft 0 kts 232°
2026-05-01 14:33 39.25468 9.05897 14 ft 1 kts 232°
2026-05-01 14:34 39.25447 9.05863 14 ft 10 kts 232°
2026-05-01 14:34 39.25396 9.05780 14 ft 11 kts 232°
2026-05-01 14:34 39.25349 9.05701 14 ft 11 kts 239°
2026-05-01 14:34 39.25373 9.05618 14 ft 11 kts 307°
2026-05-01 14:35 39.25397 9.05531 14 ft 10 kts 281°
2026-05-01 14:35 39.25414 9.05437 14 ft 14 kts 289°
2026-05-01 14:35 39.25489 9.05305 15 ft 23 kts 317°
2026-05-01 14:35 39.25612 9.05164 16 ft 24 kts 318°
2026-05-01 14:36 39.25731 9.05026 16 ft 23 kts 318°
2026-05-01 14:36 39.25845 9.04894 16 ft 22 kts 318°
2026-05-01 14:36 39.25957 9.04765 14 ft 21 kts 318°
2026-05-01 14:36 39.26064 9.04640 14 ft 19 kts 318°
2026-05-01 14:37 39.26120 9.04538 14 ft 13 kts 282°
2026-05-01 14:37 39.26114 9.04427 14 ft 12 kts 243°
2026-05-01 14:37 39.26042 9.04392 13 ft 12 kts 153°
2026-05-01 14:37 39.25975 9.04472 13 ft 19 kts 137°
2026-05-01 14:38 39.25705 9.04785 15 ft 87 kts 138°
2026-05-01 14:38 39.25098 9.05488 14 ft 145 kts 137°
2026-05-01 14:38 39.24265 9.06444 350 ft 163 kts 140°
2026-05-01 14:38 39.23426 9.07402 1076 ft 163 kts 140°
2026-05-01 14:39 39.22547 9.08425 1573 ft 179 kts 139°
2026-05-01 14:39 39.21575 9.09561 2004 ft 198 kts 139°
2026-05-01 14:39 39.20524 9.10778 2472 ft 211 kts 138°
2026-05-01 14:39 39.19400 9.12102 2941 ft 225 kts 138°
2026-05-01 14:40 39.18233 9.13451 3734 ft 224 kts 138°
2026-05-01 14:40 39.17038 9.14822 4205 ft 241 kts 137°
2026-05-01 14:40 39.15725 9.16335 4552 ft 261 kts 137°
2026-05-01 14:40 39.14359 9.17940 5150 ft 269 kts 131°
2026-05-01 14:41 39.13489 9.20050 5794 ft 271 kts 102°
2026-05-01 14:41 39.13110 9.22440 6544 ft 274 kts 99°
2026-05-01 14:41 39.12755 9.24867 7294 ft 277 kts 99°
2026-05-01 14:41 39.12386 9.27329 8055 ft 281 kts 99°
2026-05-01 14:42 39.12005 9.29782 8809 ft 285 kts 100°
2026-05-01 14:42 39.11600 9.32302 9560 ft 290 kts 100°
2026-05-01 14:42 39.11178 9.34861 10299 ft 295 kts 100°
2026-05-01 14:42 39.10735 9.37519 10655 ft 315 kts 100°
2026-05-01 14:43 39.10258 9.40346 11125 ft 329 kts 101°
2026-05-01 14:43 39.09762 9.43255 11820 ft 335 kts 101°
2026-05-01 14:43 39.09256 9.46194 12594 ft 338 kts 101°
2026-05-01 14:43 39.08743 9.49169 13359 ft 342 kts 101°
2026-05-01 14:44 39.08399 9.51160 13875 ft 345 kts 101°
2026-05-01 14:44 39.07167 9.58270 15634 ft 355 kts 101°
2026-05-01 14:44 39.06625 9.61392 16383 ft 359 kts 101°
2026-05-01 14:45 39.06076 9.64546 17117 ft 363 kts 101°
2026-05-01 14:45 39.05140 9.69917 18285 ft 370 kts 101°
2026-05-01 14:45 39.04571 9.73168 18956 ft 375 kts 101°
2026-05-01 14:46 39.03993 9.76462 19586 ft 380 kts 101°
2026-05-01 14:46 39.02376 9.82992 20831 ft 390 kts 108°
2026-05-01 14:46 39.01430 9.86291 21422 ft 395 kts 109°
2026-05-01 14:47 39.00466 9.89617 21997 ft 399 kts 109°
2026-05-01 14:47 38.99497 9.92983 22557 ft 403 kts 109°
2026-05-01 14:47 38.98527 9.96386 23112 ft 407 kts 109°
2026-05-01 14:48 38.96574 10.03308 24158 ft 416 kts 109°
2026-05-01 14:48 38.95586 10.06829 24595 ft 422 kts 109°
2026-05-01 14:48 38.93577 10.13992 25581 ft 429 kts 109°
2026-05-01 14:49 38.91549 10.21202 26514 ft 435 kts 109°
2026-05-01 14:49 38.89469 10.28576 27396 ft 442 kts 109°
2026-05-01 14:50 38.87715 10.34776 28075 ft 447 kts 109°
2026-05-01 14:50 38.85208 10.43616 28987 ft 454 kts 110°
2026-05-01 14:51 38.84122 10.47437 29358 ft 457 kts 110°
2026-05-01 14:51 38.81940 10.55096 30067 ft 462 kts 110°
2026-05-01 14:52 38.79713 10.62889 30730 ft 468 kts 110°
2026-05-01 14:52 38.78590 10.66812 31083 ft 470 kts 110°
2026-05-01 14:52 38.76324 10.74704 31694 ft 474 kts 110°
2026-05-01 14:53 38.75181 10.78680 31972 ft 477 kts 110°
2026-05-01 14:53 38.74031 10.82674 32261 ft 479 kts 110°
2026-05-01 14:53 38.72875 10.86682 32549 ft 481 kts 110°
2026-05-01 14:53 38.71716 10.90694 32822 ft 482 kts 110°
2026-05-01 14:54 38.70549 10.94729 33165 ft 482 kts 110°
2026-05-01 14:54 38.69384 10.98744 33563 ft 480 kts 110°
2026-05-01 14:54 38.68221 11.02742 33944 ft 479 kts 110°
2026-05-01 14:54 38.67057 11.06732 34281 ft 478 kts 110°
2026-05-01 14:55 38.65894 11.10716 34606 ft 478 kts 111°
2026-05-01 14:55 38.64729 11.14698 34932 ft 477 kts 110°
2026-05-01 14:55 38.63568 11.18668 35291 ft 476 kts 110°
2026-05-01 14:55 38.62407 11.22634 35609 ft 475 kts 110°
2026-05-01 14:56 38.61250 11.26580 35885 ft 475 kts 110°
2026-05-01 14:56 38.60103 11.30487 36168 ft 474 kts 111°
2026-05-01 14:56 38.58928 11.34481 36482 ft 473 kts 111°
2026-05-01 14:56 38.57784 11.38363 36737 ft 473 kts 111°
2026-05-01 14:57 38.56624 11.42294 37012 ft 472 kts 111°
2026-05-01 14:57 38.54308 11.50127 37578 ft 470 kts 111°
2026-05-01 14:57 38.53154 11.54023 37864 ft 468 kts 111°
2026-05-01 14:58 38.52004 11.57900 38171 ft 466 kts 111°
2026-05-01 14:58 38.50855 11.61765 38397 ft 465 kts 111°
2026-05-01 14:58 38.49706 11.65628 38590 ft 465 kts 111°
2026-05-01 14:58 38.48555 11.69487 38802 ft 465 kts 111°
2026-05-01 14:59 38.47405 11.73341 38997 ft 465 kts 111°
2026-05-01 14:59 38.46251 11.77205 39128 ft 466 kts 111°
2026-05-01 14:59 38.43927 11.84965 39130 ft 468 kts 111°
2026-05-01 15:00 38.40451 11.96529 39120 ft 462 kts 111°
2026-05-01 15:01 38.38152 12.04157 39125 ft 460 kts 111°
2026-05-01 15:01 38.35916 12.11555 39106 ft 438 kts 111°
2026-05-01 15:02 38.33755 12.18708 39131 ft 432 kts 111°
2026-05-01 15:02 38.31582 12.25913 39145 ft 440 kts 111°
2026-05-01 15:03 38.29369 12.33234 39139 ft 445 kts 111°
2026-05-01 15:03 38.27133 12.40607 39131 ft 447 kts 111°
2026-05-01 15:04 38.24882 12.48011 39133 ft 449 kts 111°
2026-05-01 15:04 38.22629 12.55404 39126 ft 449 kts 111°
2026-05-01 15:05 38.20382 12.62755 39128 ft 448 kts 111°
2026-05-01 15:05 38.18125 12.70118 39127 ft 446 kts 111°
2026-05-01 15:06 38.15873 12.77446 39131 ft 444 kts 111°
2026-05-01 15:06 38.13625 12.84740 39123 ft 442 kts 111°
2026-05-01 15:07 38.11383 12.91999 39127 ft 440 kts 111°
2026-05-01 15:07 38.09147 12.99221 39095 ft 437 kts 111°
2026-05-01 15:07 38.08039 13.02790 38741 ft 433 kts 111°
2026-05-01 15:08 38.06924 13.06379 37874 ft 443 kts 111°
2026-05-01 15:08 38.05767 13.10103 36661 ft 462 kts 111°
2026-05-01 15:08 38.04574 13.13935 35738 ft 472 kts 111°
2026-05-01 15:08 38.03363 13.17815 35012 ft 476 kts 112°
2026-05-01 15:09 38.02140 13.21712 34409 ft 476 kts 112°
2026-05-01 15:09 38.00900 13.25635 33575 ft 481 kts 112°
2026-05-01 15:09 37.99644 13.29600 32598 ft 489 kts 112°
2026-05-01 15:09 37.98369 13.33620 31784 ft 493 kts 112°
2026-05-01 15:10 37.97093 13.37641 31205 ft 490 kts 112°
2026-05-01 15:10 37.94549 13.45649 29654 ft 493 kts 112°
2026-05-01 15:10 37.93269 13.49673 28968 ft 493 kts 112°
2026-05-01 15:11 37.91993 13.53678 28395 ft 488 kts 113°
2026-05-01 15:11 37.89442 13.61669 26837 ft 489 kts 112°
2026-05-01 15:11 37.88171 13.65639 26287 ft 484 kts 112°
2026-05-01 15:12 37.86918 13.69564 25746 ft 478 kts 112°
2026-05-01 15:12 37.84470 13.77308 24632 ft 470 kts 112°
2026-05-01 15:12 37.83262 13.81132 24086 ft 466 kts 112°
2026-05-01 15:13 37.79709 13.92335 22476 ft 453 kts 112°
2026-05-01 15:14 37.77382 13.99640 21395 ft 438 kts 112°
2026-05-01 15:14 37.76251 14.03161 20819 ft 426 kts 112°
2026-05-01 15:14 37.74063 14.09897 19859 ft 403 kts 112°
2026-05-01 15:15 37.71963 14.16341 18784 ft 387 kts 112°
2026-05-01 15:15 37.69973 14.22444 17986 ft 367 kts 112°
2026-05-01 15:16 37.68060 14.28307 16957 ft 357 kts 112°
2026-05-01 15:16 37.66181 14.34057 15987 ft 348 kts 112°
2026-05-01 15:17 37.64389 14.39526 15268 ft 333 kts 112°
2026-05-01 15:18 37.60964 14.46867 13802 ft 322 kts 148°
2026-05-01 15:18 37.58979 14.48041 13588 ft 307 kts 162°
2026-05-01 15:19 37.53165 14.50685 12518 ft 295 kts 162°
2026-05-01 15:19 37.49350 14.52450 11749 ft 290 kts 160°
2026-05-01 15:19 37.47528 14.53531 11343 ft 289 kts 156°
2026-05-01 15:20 37.43873 14.55518 10585 ft 283 kts 159°
2026-05-01 15:20 37.42022 14.56344 10193 ft 281 kts 163°
2026-05-01 15:20 37.40167 14.57091 9818 ft 279 kts 163°
2026-05-01 15:21 37.38316 14.57819 9434 ft 277 kts 163°
2026-05-01 15:21 37.36483 14.58529 9075 ft 274 kts 163°
2026-05-01 15:21 37.34698 14.59210 8941 ft 263 kts 163°
2026-05-01 15:21 37.32967 14.59910 8612 ft 261 kts 156°
2026-05-01 15:22 37.30871 14.63307 7993 ft 251 kts 95°
2026-05-01 15:22 37.31083 14.65444 7643 ft 247 kts 65°
2026-05-01 15:22 37.32112 14.67116 7294 ft 243 kts 34°
2026-05-01 15:23 37.33653 14.67871 6958 ft 239 kts
2026-05-01 15:23 37.35278 14.67996 6619 ft 237 kts
2026-05-01 15:23 37.36925 14.68102 6350 ft 233 kts
2026-05-01 15:23 37.38511 14.68190 6205 ft 225 kts
2026-05-01 15:24 37.40061 14.68332 5919 ft 224 kts 13°
2026-05-01 15:24 37.41509 14.69081 5694 ft 225 kts 27°
2026-05-01 15:24 37.42776 14.70226 5541 ft 224 kts 40°
2026-05-01 15:24 37.43666 14.71791 5240 ft 226 kts 73°
2026-05-01 15:25 37.43892 14.73757 4948 ft 229 kts 82°
2026-05-01 15:25 37.44102 14.75754 4630 ft 232 kts 81°
2026-05-01 15:25 37.44296 14.77778 4316 ft 234 kts 82°
2026-05-01 15:25 37.44466 14.79803 4000 ft 231 kts 83°
2026-05-01 15:26 37.44525 14.80526 3891 ft 229 kts 83°